Wind_Speed
8 7 8 8 9 11 11 9 4 2 2 4 7 6 4 5 5 7 8 8 6 5 5 6 5 4 5 7 9 10 11 11 11 11 10 10 10 10 11 12 12 13 12 15 18 18 19 18 18 17 16 16 16 15 16 17 16 16 16 15 14 13 14 14 13 13 12 11 10 10 10 9 9 8 7 6 6 5 5 5 4 4 4 5 5 6
9 8 10 10 9 9 9 7 4 4 4 4 6 6 6 5 6 7 6 8 7 4 3 5 6 5 5 7 9 10 12 12 12 13 12 12 12 11 12 12 12 11 11 14 16 18 19 18 18 17 16 17 17 16 17 17 17 17 17 16 15 14 14 14 14 13 12 11 10 10 10 9 9 9 8 7 6 5 5 4 3 4 4 5 5 6
9 9 10 11 7 7 7 6 6 5 5 5 6 6 6 5 7 7 6 7 7 5 2 3 6 5 6 6 9 11 11 11 12 14 13 14 14 12 12 12 12 12 12 14 15 18 20 19 19 18 16 17 17 17 18 17 17 17 17 17 16 15 15 14 14 13 13 11 10 9 9 8 8 8 8 6 6 5 4 4 4 4 5 5 5 6
9 8 11 11 7 8 8 6 7 6 6 6 5 7 7 7 5 5 7 8 5 3 2 2 6 4 6 5 8 11 11 9 11 13 13 13 14 13 13 12 12 13 13 14 15 17 19 20 20 18 17 17 17 17 17 17 17 17 17 17 17 16 16 15 14 14 12 12 11 9 8 7 6 7 7 6 5 5 4 4 4 4 5 5 5 6
7 6 10 11 9 10 9 8 8 7 7 7 6 7 5 6 4 2 6 6 5 4 5 5 7 4 6 6 7 9 10 9 9 10 11 11 11 11 12 13 13 14 14 14 15 16 18 20 20 19 18 18 18 18 18 18 18 17 18 18 18 17 16 15 15 15 13 12 12 10 9 8 6 6 7 8 7 7 6 5 5 6 6 6 6 6
5 6 11 12 11 10 9 8 10 9 7 8 9 8 3 3 4 3 4 4 5 6 7 6 7 5 6 3 2 4 6 7 5 6 8 8 9 10 11 12 13 13 14 14 15 15 18 20 20 20 19 19 19 18 18 19 19 18 18 19 19 17 17 16 16 16 15 14 13 13 11 10 10 9 9 9 9 8 7 6 6 6 7 7 6 6
5 8 11 12 11 11 9 8 10 9 8 7 8 8 5 3 5 4 4 5 5 3 5 4 6 4 7 5 6 3 3 4 4 3 5 6 8 9 10 10 12 13 13 14 15 16 17 20 21 21 21 20 20 19 19 18 19 19 18 19 19 18 17 17 17 18 17 15 14 14 13 12 11 10 10 9 8 8 8 7 7 7 7 7 7 6
7 10 11 11 11 10 8 7 9 9 9 4 6 6 8 8 8 7 6 6 3 1 3 5 5 4 5 6 5 3 5 6 4 2 3 5 8 9 10 11 12 12 12 12 14 16 17 19 21 22 22 22 21 20 20 19 19 19 19 19 19 18 17 17 18 20 19 17 16 15 14 12 12 11 10 10 9 8 8 7 7 7 7 7 7 6
9 9 11 11 11 8 8 8 8 11 10 1 5 4 6 7 9 8 7 6 2 2 5 7 5 5 4 7 5 5 6 6 5 3 1 2 6 9 11 12 13 13 12 12 13 15 18 20 22 22 22 23 23 21 21 20 20 20 20 20 20 19 18 18 19 21 21 19 16 16 15 13 12 11 9 10 10 9 8 8 8 7 7 7 8 7
7 4 6 10 8 4 6 6 6 11 9 2 4 4 4 5 7 7 7 6 3 5 8 7 8 7 3 6 4 5 5 6 6 5 5 5 4 6 10 11 12 12 13 13 13 15 18 21 22 23 23 23 23 22 21 21 20 21 21 21 21 20 19 19 20 21 21 20 17 16 16 15 13 11 10 9 10 9 9 9 8 8 8 7 8 8
8 5 3 3 1 2 1 3 4 9 7 3 5 6 5 5 5 5 5 4 4 7 9 8 8 8 3 4 4 5 6 7 6 6 7 7 6 4 6 10 12 12 12 14 14 16 20 21 21 22 22 23 23 22 22 22 21 21 21 21 22 22 20 19 20 21 21 20 19 18 18 17 15 13 12 11 10 10 9 10 9 9 9 8 8 8
9 7 5 3 4 3 3 5 5 7 6 5 7 7 7 6 5 5 5 4 6 7 9 9 7 7 5 4 6 6 6 7 7 7 9 9 8 7 5 6 9 11 12 13 13 14 16 18 20 22 22 22 22 22 22 22 22 21 21 22 22 22 21 20 20 21 20 20 20 20 19 18 17 15 13 12 11 11 11 11 10 9 9 9 8 8
7 5 6 5 3 2 5 8 7 7 8 8 8 8 7 7 6 7 7 7 8 6 5 8 8 5 2 5 6 8 8 7 8 8 9 10 9 7 6 5 6 9 11 11 11 12 13 15 18 21 22 22 22 23 23 22 22 21 21 22 22 22 22 21 21 21 21 20 20 20 20 19 18 16 15 14 12 11 11 11 11 11 10 10 10 9
6 5 5 5 3 2 3 6 5 7 10 9 8 8 7 7 8 9 8 7 9 6 4 5 7 6 6 5 3 7 8 8 8 9 9 9 9 8 6 5 4 7 10 11 11 12 13 14 18 21 22 22 23 23 24 23 22 21 21 22 23 23 23 22 21 21 21 21 20 20 20 20 19 18 17 15 14 13 12 12 12 12 12 11 11 11
6 7 3 1 1 2 3 2 3 2 10 11 8 8 8 6 6 8 8 9 9 8 7 7 6 5 7 4 2 7 8 8 9 9 10 10 9 9 8 7 7 4 5 9 12 13 13 16 19 21 22 23 24 24 25 24 23 22 22 23 23 23 23 23 22 22 22 22 21 20 20 20 19 19 18 17 15 14 13 13 13 12 12 12 11 11
3 6 5 4 3 3 3 3 5 4 7 8 6 7 6 4 4 4 4 7 9 8 7 7 3 3 7 7 5 6 6 8 9 10 12 12 12 10 9 9 9 8 5 4 7 11 14 17 19 20 22 23 24 25 25 24 24 23 22 23 25 24 24 24 23 23 23 22 21 21 21 21 20 19 18 17 17 16 15 13 13 13 13 12 11 11
2 5 6 3 3 4 4 2 2 3 2 5 7 7 2 3 3 3 1 4 7 8 7 7 6 7 7 7 6 5 5 7 10 11 13 13 13 12 11 11 10 10 9 8 6 6 9 15 20 21 22 23 24 25 25 25 25 25 24 23 25 25 24 24 25 24 24 23 22 22 22 22 21 21 20 19 18 18 16 15 14 14 13 14 13 12
1 4 6 3 4 5 3 0 1 2 3 3 5 5 4 2 4 4 3 5 7 7 6 8 10 9 7 5 5 4 4 7 10 12 13 14 14 14 13 12 12 12 10 10 9 8 7 10 18 21 21 22 24 25 26 27 26 25 25 25 25 26 25 25 25 24 23 23 23 22 23 23 22 22 22 21 19 18 17 17 16 15 14 14 14 13
2 3 7 3 3 5 2 3 4 3 1 3 1 1 2 4 6 5 5 6 9 8 6 9 10 7 3 3 6 4 4 6 8 11 12 14 15 14 13 14 14 12 11 9 8 8 7 9 13 18 21 22 23 24 25 26 27 26 25 25 25 26 26 26 25 25 24 24 23 22 23 24 24 23 22 21 19 18 18 19 18 17 16 15 15 14
3 2 5 4 3 4 4 2 2 4 3 1 2 2 3 4 3 5 6 5 7 9 7 8 9 5 2 4 7 6 6 6 7 9 11 13 15 14 14 14 13 12 11 9 8 7 6 10 13 15 18 20 20 22 23 24 25 26 25 24 24 24 25 25 25 25 25 25 24 23 23 24 24 24 22 21 20 19 20 20 19 18 17 16 15 15
3 3 2 6 5 5 2 2 3 3 1 2 5 5 5 4 2 3 5 4 5 6 7 9 8 5 4 4 6 6 6 7 7 8 9 11 13 14 15 13 12 12 12 11 9 8 8 5 9 13 15 17 18 19 20 22 24 24 24 24 24 24 24 25 25 24 24 24 24 23 24 24 24 24 23 22 22 21 21 20 20 19 18 17 17 16
2 2 1 5 5 3 4 6 5 5 5 3 2 1 1 4 4 5 7 5 4 5 3 6 7 7 4 3 5 5 6 7 8 8 8 10 12 13 14 14 13 12 12 13 11 9 12 13 8 2 4 9 15 18 19 20 21 22 23 23 23 24 25 25 25 24 23 22 23 24 24 24 24 24 24 23 23 22 22 21 21 20 19 18 18 18
3 2 0 4 4 5 7 5 3 3 4 3 3 3 3 3 4 6 6 6 6 5 3 2 6 7 3 4 5 5 6 7 8 8 8 10 11 12 14 14 14 14 14 14 13 12 13 17 17 16 15 11 6 12 17 18 18 19 21 22 21 22 24 24 24 24 23 22 23 24 24 23 23 23 24 24 23 23 23 22 21 21 20 20 19 18
3 2 1 4 5 5 6 3 1 1 3 2 3 4 3 2 2 4 4 3 5 6 3 5 5 7 4 5 5 5 6 7 7 9 9 9 9 11 13 13 13 14 15 14 14 15 17 19 20 18 17 17 15 7 5 13 17 17 18 20 22 22 23 23 22 22 22 23 23 23 23 23 23 23 24 24 24 24 23 22 21 21 22 22 20 19
2 1 1 3 5 5 6 5 4 3 2 1 3 4 4 4 3 4 3 4 5 1 3 7 5 7 6 6 5 5 7 7 8 9 9 9 9 10 11 12 12 13 14 15 15 15 17 19 20 19 17 15 17 18 15 8 9 16 17 17 20 21 22 21 21 21 22 22 22 23 23 23 23 23 24 24 24 24 24 23 22 21 22 23 22 21
2 1 2 3 4 5 4 3 2 3 3 3 3 4 4 5 4 3 2 5 5 1 2 4 4 10 9 8 7 6 7 7 8 9 9 9 10 10 10 10 11 12 13 15 15 14 15 16 18 20 19 16 15 15 17 18 12 8 14 17 18 18 19 21 22 22 22 21 21 22 23 23 23 24 24 24 24 24 24 23 23 22 22 22 23 23
1 1 3 3 3 2 3 4 4 2 3 3 3 4 4 5 5 4 3 4 3 3 3 4 7 12 12 9 8 7 6 7 8 8 9 9 9 10 10 9 10 11 12 13 13 13 14 14 16 19 20 18 16 14 14 16 18 14 8 12 17 17 17 19 22 22 23 22 21 21 23 24 24 24 24 24 24 23 23 23 23 23 22 22 22 23
2 2 2 4 5 6 6 6 5 3 3 3 2 2 3 4 4 3 1 2 2 2 5 6 7 11 11 8 7 6 6 6 7 7 8 8 8 9 9 9 11 12 13 13 14 14 14 13 14 17 19 19 19 17 16 16 17 18 16 9 10 15 17 17 19 22 22 22 21 22 23 24 24 24 23 23 23 23 22 22 23 23 22 21 21 23
2 2 2 2 4 5 5 5 4 3 3 2 1 1 2 2 2 3 4 4 4 1 5 8 7 8 9 7 7 6 4 5 6 6 7 7 8 9 9 10 12 13 14 14 14 14 14 13 14 16 17 18 20 21 19 18 18 17 17 17 13 9 13 16 17 19 21 21 22 23 23 23 23 22 23 22 22 23 23 22 22 23 22 21 21 21
2 2 2 2 4 5 4 3 2 2 0 1 1 1 0 0 1 2 3 3 3 4 7 9 9 8 7 5 6 5 3 4 5 4 6 7 8 9 9 10 12 12 13 14 14 14 14 14 16 18 18 18 19 21 19 18 18 16 16 16 16 13 10 13 17 18 19 20 22 23 22 21 21 21 21 23 23 23 23 23 22 22 22 22 22 21
3 1 2 2 3 4 3 2 1 0 1 2 2 2 3 3 3 3 2 3 3 4 6 8 8 7 5 4 5 5 2 2 3 3 5 6 8 9 9 10 11 12 12 13 13 14 14 14 16 18 19 20 19 19 18 18 16 15 14 14 14 14 12 11 14 16 19 20 20 20 20 20 20 21 21 22 23 23 23 23 22 22 22 22 21 21
1 2 3 4 4 4 4 2 2 2 3 5 5 5 6 5 4 4 3 2 2 3 6 6 5 5 6 4 4 3 2 2 3 3 4 5 7 8 9 10 10 11 11 12 12 13 13 14 16 17 19 20 20 19 18 18 18 16 15 14 13 13 13 12 12 14 16 20 20 19 20 20 20 21 22 22 22 22 22 22 22 22 22 22 22 22
1 2 3 4 4 3 4 2 2 3 6 6 5 6 6 4 3 3 4 3 1 2 3 3 2 5 5 3 3 2 1 2 3 2 3 5 6 7 8 9 9 10 10 11 11 12 13 13 15 17 18 18 19 19 18 17 18 17 16 15 14 14 14 13 12 13 14 17 20 20 20 20 20 21 22 23 22 21 20 20 22 23 23 23 23 21
1 2 1 2 3 3 4 2 4 5 6 2 5 5 3 3 3 4 4 5 3 1 1 3 5 5 4 2 2 1 2 2 1 1 2 4 5 6 7 8 9 9 9 10 11 12 13 14 15 16 17 18 18 18 18 17 17 17 17 15 14 13 14 14 13 12 13 14 18 20 19 19 20 21 21 21 22 21 20 21 22 24 23 23 22 22
2 2 1 1 3 1 3 3 5 5 2 5 6 5 3 1 2 2 2 4 4 2 1 2 4 5 2 0 0 1 1 2 2 2 1 3 4 6 7 7 8 9 9 9 10 12 13 15 16 16 17 17 17 18 18 18 18 18 16 13 12 11 12 14 14 13 13 13 13 17 20 20 20 21 21 21 20 21 22 23 23 24 23 22 22 23
2 2 2 2 3 1 3 5 4 1 4 5 4 4 4 3 4 4 4 6 6 4 3 3 4 5 2 1 1 2 3 4 3 4 2 2 4 5 7 8 9 10 10 10 11 12 13 14 15 16 16 16 17 17 18 18 19 18 16 13 12 10 10 12 14 14 13 14 15 13 15 19 21 20 20 20 21 21 22 24 24 24 24 23 23 23
3 2 2 3 3 2 4 5 2 2 4 5 5 5 4 3 2 2 4 5 7 4 3 3 3 4 3 2 1 3 5 6 5 4 3 2 4 5 7 8 9 10 11 12 12 12 12 13 14 15 15 15 16 17 17 18 19 18 16 13 12 10 9 10 13 14 14 13 15 17 14 14 18 21 21 20 21 23 23 24 25 25 24 23 23 24
4 3 2 3 3 3 4 4 3 4 4 5 6 6 4 2 3 1 3 3 8 6 3 4 5 4 3 2 1 3 5 6 5 4 4 1 4 6 7 8 10 11 12 13 13 13 13 14 14 14 14 14 15 16 16 17 18 18 16 14 13 12 10 9 10 12 13 14 16 17 16 15 15 18 21 22 22 23 24 24 24 24 23 24 24 24
4 3 3 4 4 4 5 5 5 4 1 5 7 7 5 3 3 1 4 4 7 7 5 5 5 4 3 2 0 2 4 5 4 3 4 3 7 8 9 9 10 12 12 13 13 14 15 15 14 13 13 13 14 16 16 16 17 17 16 15 15 14 13 12 11 10 10 13 16 17 16 16 16 16 17 21 23 24 24 23 23 23 22 23 23 24
6 5 4 6 5 5 5 5 4 2 2 7 8 8 6 4 2 5 6 3 6 7 5 4 4 3 2 0 2 3 3 4 3 4 7 9 10 10 10 10 11 12 13 13 13 14 15 15 14 13 14 14 14 14 15 15 16 16 17 16 16 15 15 15 14 12 10 10 12 15 15 14 15 16 17 17 19 22 22 20 21 21 22 22 23 23
5 5 5 6 6 5 6 5 5 2 3 8 10 9 8 5 4 6 3 4 7 7 5 3 1 0 1 2 3 3 2 4 6 8 10 11 11 11 12 13 13 13 13 14 14 14 15 14 13 14 15 14 13 13 14 14 15 15 16 16 16 16 17 17 17 15 13 11 11 12 13 13 14 15 16 17 17 18 20 20 19 19 19 20 21 22
5 5 5 6 6 5 5 5 6 3 4 8 10 10 8 5 3 1 3 6 6 5 4 2 2 2 2 4 4 3 4 5 7 8 10 11 11 11 13 15 15 14 13 14 14 14 15 15 14 15 15 14 13 14 14 15 16 16 15 15 16 17 18 18 18 17 15 14 13 12 11 12 13 14 14 14 14 14 17 20 22 22 22 22 22 22
4 4 5 6 5 5 4 5 6 2 4 9 11 9 8 6 0 4 5 5 5 3 2 2 3 1 2 4 4 5 6 7 7 8 9 10 11 12 14 15 15 16 15 14 14 14 15 15 15 15 15 14 14 13 14 15 16 16 16 16 16 17 18 18 19 18 16 15 13 12 12 12 12 13 14 14 13 13 14 15 17 21 23 24 26 27
5 5 4 4 4 5 5 5 3 1 5 10 9 4 5 5 3 4 2 2 3 2 2 2 2 1 2 4 5 6 7 7 7 7 7 9 10 12 14 15 15 16 16 16 16 15 15 16 17 17 16 15 14 13 13 14 15 16 17 16 15 16 16 17 19 19 17 16 14 13 13 13 13 13 15 15 14 14 14 14 14 17 20 22 25 28
4 4 3 3 3 5 5 3 2 4 4 8 7 2 2 6 5 2 1 1 1 2 1 2 2 2 2 4 5 6 7 7 7 8 8 8 9 11 13 14 15 16 17 17 17 16 15 16 17 18 18 17 15 14 13 12 14 16 17 17 15 15 15 16 18 19 18 17 16 14 13 12 13 13 13 14 16 16 16 15 15 16 18 18 20 24
3 2 2 3 4 5 7 7 5 3 3 7 7 3 4 6 5 3 2 3 2 2 2 2 3 2 3 4 5 6 7 8 9 9 8 8 9 10 12 14 15 17 17 17 17 17 17 17 17 18 19 18 16 15 14 13 13 15 17 17 16 15 14 15 16 17 18 18 17 16 13 11 11 12 12 12 13 15 17 17 16 15 16 18 19 21
6 5 5 5 5 4 4 5 6 7 7 7 8 7 6 6 5 4 4 4 2 3 3 3 3 3 4 5 6 7 8 10 10 10 9 8 8 10 11 13 15 17 18 19 19 19 19 19 18 17 18 19 17 16 15 14 13 13 15 17 17 15 14 14 15 16 17 18 18 17 13 11 10 11 12 10 9 11 14 17 17 15 15 17 18 19
5 7 7 8 9 8 6 3 1 3 5 6 8 7 8 8 7 7 6 4 4 4 5 4 4 5 5 5 6 7 9 10 10 10 9 8 8 10 11 13 15 17 19 20 21 21 20 20 19 18 19 19 18 17 16 16 15 14 14 16 17 15 14 13 14 15 16 18 19 17 14 12 11 11 12 12 10 9 11 14 16 17 17 17 17 18
4 5 5 6 8 9 10 9 7 5 5 7 10 10 9 9 8 8 7 7 6 6 6 6 6 6 6 6 6 7 9 9 10 11 10 9 10 11 12 14 16 17 19 20 21 21 21 21 21 21 20 20 19 18 17 17 16 15 15 16 16 15 15 14 13 14 15 16 17 16 15 15 13 10 11 13 13 11 11 12 14 18 22 23 23 23
3 6 7 6 8 9 9 9 8 8 8 7 9 11 11 10 9 9 9 8 8 8 7 7 7 7 7 8 8 8 8 8 10 11 11 11 12 13 14 16 17 18 19 20 21 21 22 22 23 23 22 21 19 19 18 18 17 16 15 16 15 15 15 15 15 14 14 14 15 15 16 17 15 12 11 12 15 16 16 15 15 16 19 23 25 26
7 9 8 8 10 11 10 9 7 7 8 7 5 5 7 8 9 10 10 9 9 8 7 7 7 6 7 7 8 8 8 9 11 12 12 13 14 15 16 17 18 19 20 20 21 22 23 23 23 24 24 22 20 19 19 19 18 16 16 15 15 15 15 15 15 15 13 13 13 14 16 18 18 15 12 11 13 16 18 20 19 18 17 18 20 22
Wind_Direction
191 193 196 201 200 191 194 206 198 163 199 191 183 186 183 161 123 105 111 136 172 216 210 200 213 197 162 158 164 165 172 185 184 182 187 190 190 187 189 188 181 183 183 179 182 184 184 183 181 179 179 182 183 183 182 181 181 179 178 175 175 181 182 180 180 180 182 181 181 182 183 182 182 183 182 181 177 167 155 146 145 143 154 164 162 162
194 209 198 200 198 178 185 191 172 172 180 200 194 179 195 187 118 106 121 135 159 191 183 197 215 199 182 171 168 175 182 189 188 186 188 193 196 192 193 192 183 183 179 174 177 182 185 184 182 181 180 183 184 184 184 185 185 183 182 179 176 180 184 186 185 184 185 183 183 182 184 184 178 180 184 182 180 171 158 158 157 148 160 165 160 165
193 216 195 186 178 159 168 177 187 199 189 202 205 194 197 170 122 117 126 135 165 192 138 210 230 177 171 176 171 187 196 195 193 189 190 193 194 191 191 192 186 183 180 176 176 181 185 185 184 182 181 184 186 185 186 188 187 185 184 182 179 180 183 187 188 187 186 184 184 182 184 185 177 179 185 178 173 172 161 163 167 164 171 165 161 170
194 209 180 167 165 167 170 174 192 203 204 210 205 207 194 164 164 142 131 136 169 220 107 229 251 166 154 177 179 194 202 201 196 193 193 192 192 189 187 191 189 185 183 179 180 182 184 184 185 185 183 184 185 186 187 189 189 187 186 184 182 181 182 186 187 186 186 182 182 182 181 185 180 178 185 183 179 183 179 174 175 180 181 166 162 171
197 175 157 165 176 184 183 180 199 208 206 211 214 223 195 170 198 87 113 149 182 198 149 203 240 173 156 182 182 191 199 204 199 196 198 190 188 189 188 193 192 189 186 184 184 183 184 185 185 186 184 184 185 187 188 189 191 190 189 186 184 183 182 185 186 183 182 180 181 183 184 189 190 186 189 194 193 188 190 189 180 180 181 170 166 171
186 140 153 172 179 190 196 190 205 217 212 208 211 226 219 172 192 122 125 187 204 185 163 210 232 166 152 159 132 157 181 199 195 197 205 188 186 195 196 195 194 194 190 187 188 185 185 186 186 186 186 187 188 189 190 190 192 191 189 187 185 184 183 184 185 183 181 182 186 189 190 192 193 194 196 199 197 188 188 187 173 172 177 174 171 173
150 150 173 181 177 188 203 203 202 212 227 212 190 202 215 220 217 200 190 214 231 171 137 224 248 174 139 79 24 27 120 148 162 190 213 193 188 199 205 199 196 198 194 191 192 189 188 187 187 188 188 191 192 191 191 191 192 190 188 187 186 186 185 184 184 184 185 188 192 194 196 196 196 196 197 200 200 189 185 179 167 169 175 178 177 176
143 158 178 182 185 190 201 205 188 199 231 204 130 175 206 216 222 218 218 225 253 24 143 207 248 222 145 85 27 24 87 95 108 157 218 208 202 202 207 206 201 201 197 196 195 192 192 189 189 190 190 193 194 192 192 191 191 189 187 187 187 188 186 185 184 187 192 193 194 196 199 201 202 202 197 196 199 192 186 180 172 174 175 180 183 180
158 175 177 178 190 197 204 207 177 191 227 177 98 179 201 212 223 218 225 228 222 253 218 191 206 230 155 105 76 74 76 66 58 32 331 240 221 210 209 208 205 200 196 202 204 198 194 192 192 192 191 194 195 193 192 192 191 187 186 186 187 188 188 187 186 190 197 197 195 196 198 203 205 206 200 195 197 195 191 189 183 181 179 180 184 186
152 176 179 185 197 200 196 197 172 195 218 111 111 188 171 188 216 213 224 222 187 232 232 187 190 219 145 103 95 74 51 29 25 11 2 348 297 231 215 211 209 202 193 198 206 206 200 195 194 194 194 195 196 194 192 192 191 187 185 185 186 188 188 189 189 192 197 197 196 197 198 201 203 203 202 195 194 194 196 198 193 190 188 185 186 188
117 101 132 185 267 343 153 156 185 212 218 141 160 183 166 169 190 203 220 222 204 223 228 202 197 221 200 95 78 62 34 13 6 3 1 350 339 308 236 217 212 208 199 197 201 204 201 198 197 197 197 197 196 195 192 191 192 188 186 184 186 188 188 190 191 193 196 196 198 200 199 200 201 202 201 198 195 195 199 203 201 198 195 192 190 188
137 144 134 88 19 351 204 185 194 216 215 195 193 185 173 167 171 194 196 209 222 222 217 200 192 222 220 106 80 66 40 19 10 5 3 354 347 342 307 246 218 211 207 203 202 203 198 196 199 199 199 199 197 196 194 193 192 189 187 185 185 187 187 189 192 194 196 197 200 202 201 202 202 203 204 204 203 199 202 205 204 202 197 194 194 191
147 141 128 119 81 29 217 196 174 190 203 205 199 185 182 174 174 197 190 198 221 220 200 190 192 211 136 90 80 67 46 27 23 14 7 3 357 350 334 303 243 217 211 207 203 205 201 196 198 199 200 199 197 197 196 195 194 191 188 185 185 187 188 189 192 194 196 199 202 203 203 203 204 205 207 208 208 205 204 205 206 204 200 196 195 194
147 131 139 161 145 29 273 213 174 182 194 201 199 189 193 185 181 196 192 197 213 206 172 171 197 194 126 96 80 76 53 28 31 25 17 13 9 6 358 341 295 230 214 209 204 204 205 199 197 199 200 199 197 197 197 197 196 192 189 187 186 187 188 188 190 193 196 200 203 204 204 204 204 206 208 209 211 210 207 207 208 208 205 202 201 200
162 148 136 72 88 11 332 309 327 239 189 193 202 202 210 208 199 200 196 199 201 189 167 163 197 195 146 137 97 86 67 40 39 36 32 29 24 21 16 10 357 315 231 216 211 208 209 205 200 198 199 199 199 198 198 198 196 193 190 188 188 188 188 189 190 192 195 199 202 204 204 205 205 206 209 211 212 211 210 210 210 210 209 208 206 203
161 116 77 48 38 360 2 11 336 298 189 182 199 215 222 232 230 220 205 203 198 186 175 170 159 88 123 136 113 90 76 53 42 40 42 36 31 30 26 21 11 356 342 282 230 216 212 208 203 201 200 200 199 199 200 199 196 195 192 189 189 190 188 189 191 192 195 199 201 202 204 205 206 207 208 210 210 211 211 211 211 212 212 211 210 206
178 104 90 110 101 37 10 23 355 310 226 175 191 206 178 18 293 254 192 196 207 200 180 161 124 104 127 132 104 88 73 56 39 36 42 38 33 33 28 22 12 2 353 340 315 270 231 211 205 204 203 201 200 200 199 199 197 196 193 191 190 190 190 191 192 194 196 197 199 201 204 205 207 208 210 211 211 211 212 213 215 215 214 215 213 211
248 119 105 116 108 79 33 17 111 350 308 221 192 179 111 48 282 262 220 186 200 202 177 164 149 144 169 158 109 91 60 50 39 35 38 38 35 33 30 23 13 5 355 345 333 317 284 229 211 206 206 205 204 202 200 198 197 196 195 194 192 191 191 193 194 196 196 196 198 200 203 205 208 211 214 215 214 213 213 214 217 217 216 216 216 215
313 135 119 110 103 114 147 216 175 143 326 312 306 152 176 215 209 216 228 199 197 203 175 158 149 137 172 139 97 67 40 41 38 36 34 35 35 31 28 23 16 9 2 356 345 324 295 252 225 211 209 210 208 205 203 199 197 198 198 198 197 195 194 195 196 196 196 196 198 201 203 205 207 211 214 215 215 213 214 214 215 217 217 216 215 214
292 223 138 123 129 156 175 231 200 148 149 221 243 213 227 249 215 206 224 212 208 205 167 156 154 123 81 90 78 57 46 39 34 37 35 35 36 32 28 24 19 14 8 4 359 345 306 256 236 221 213 215 213 209 207 204 201 200 201 201 201 200 198 199 198 196 195 197 199 200 201 203 206 209 211 213 213 212 214 215 215 217 217 216 216 214
262 246 149 130 155 191 177 41 26 31 49 206 215 202 193 227 262 243 228 232 248 225 182 180 172 119 89 89 76 66 60 48 40 42 40 38 36 34 32 28 24 19 12 9 9 8 359 307 243 225 216 214 215 211 208 208 206 205 205 204 203 201 200 202 201 199 197 198 199 198 199 201 203 206 207 209 211 212 214 215 216 217 216 216 216 215
304 253 191 146 160 162 95 60 36 15 359 344 285 251 219 231 230 219 215 212 251 271 240 193 160 106 94 106 82 72 65 58 51 46 46 45 38 36 34 29 28 25 19 16 17 21 23 21 18 338 251 228 219 212 208 210 210 208 209 208 206 204 203 204 203 201 199 199 200 199 200 201 202 203 204 205 208 211 214 216 217 216 215 215 216 216
334 282 145 113 102 97 102 85 32 14 344 345 19 13 326 277 248 233 223 204 210 241 289 197 128 101 104 112 95 85 71 65 58 50 50 49 41 40 38 31 29 28 25 23 22 26 29 29 30 31 21 3 292 220 209 211 214 213 212 210 208 207 208 207 204 201 199 199 201 201 201 201 201 202 203 204 207 211 214 216 216 215 214 216 216 216
310 271 116 110 101 110 133 144 59 342 265 245 58 25 338 321 306 288 311 299 221 199 220 218 142 113 133 124 104 100 82 69 64 56 51 49 43 43 42 34 29 29 28 27 26 27 30 30 30 32 29 19 9 349 243 219 217 219 217 212 209 210 211 211 208 203 199 200 202 202 202 202 203 203 203 205 208 211 214 215 214 214 214 216 217 216
319 284 214 172 162 164 177 185 183 193 221 161 68 33 8 9 333 286 301 283 244 184 278 245 167 115 135 137 114 104 88 71 65 61 53 50 44 41 43 37 30 29 28 27 26 27 29 30 30 30 29 27 24 16 2 333 245 224 220 217 214 212 211 210 209 207 204 204 204 203 203 204 205 206 206 207 210 211 213 214 213 213 214 215 216 216
318 354 304 247 213 198 196 186 177 173 154 120 66 43 25 14 347 299 245 228 223 136 339 277 130 117 134 136 115 98 90 77 67 61 55 52 49 46 44 39 32 31 29 26 24 25 27 28 29 28 27 27 29 25 13 4 344 268 230 224 222 219 213 207 207 209 208 208 207 205 205 206 207 209 209 209 212 213 213 214 214 213 213 214 214 216
268 71 12 345 351 25 70 66 34 23 140 129 78 54 32 14 355 309 248 225 215 162 116 68 107 131 142 140 122 96 82 79 69 60 55 48 45 49 45 39 38 36 32 28 25 22 22 21 22 22 24 26 26 27 23 14 5 352 314 243 228 225 221 212 208 208 208 209 210 207 205 207 208 211 211 211 213 215 214 215 215 215 214 213 213 215
212 144 64 42 50 54 64 69 50 38 85 97 81 65 36 20 2 336 339 44 346 217 150 105 119 139 139 135 122 96 75 76 67 56 54 46 39 42 41 37 39 37 34 31 27 23 18 15 14 13 18 22 23 24 25 21 13 5 358 331 258 234 227 219 212 210 208 207 211 210 207 208 209 210 211 211 212 214 215 216 216 216 215 214 213 215
258 134 102 97 94 80 70 70 62 57 78 89 63 51 42 25 17 34 61 52 1 349 124 124 137 137 130 129 117 95 69 70 67 53 50 47 39 38 37 36 35 34 32 29 26 24 20 15 10 6 8 14 17 19 22 21 15 8 5 360 340 282 242 229 220 217 213 207 209 212 210 209 210 210 209 209 210 211 214 215 216 215 215 215 215 217
304 98 120 151 128 106 87 84 77 49 77 195 198 152 156 359 71 78 79 76 60 72 106 125 133 121 111 112 110 102 73 61 64 52 48 44 35 34 35 35 33 30 29 26 22 21 20 17 13 4 2 7 11 13 15 15 13 9 7 2 352 335 293 248 229 225 224 217 212 212 212 209 209 210 209 207 208 209 211 213 215 216 216 216 217 219
301 121 145 202 172 138 122 126 150 239 259 225 210 199 197 185 175 178 163 141 136 119 118 131 137 128 119 119 121 124 121 89 63 39 41 37 30 30 32 32 31 27 25 24 21 18 17 17 15 7 2 2 5 8 8 5 3 6 9 5 354 345 326 279 247 236 231 228 223 215 211 209 207 208 208 208 208 209 210 212 213 214 216 216 218 219
286 152 162 225 224 158 140 182 213 224 239 233 220 200 192 189 183 171 156 170 192 150 145 163 168 140 132 140 144 145 155 123 77 43 31 25 22 25 29 29 29 25 21 20 19 18 16 13 13 11 4 359 358 1 1 357 353 355 0 2 358 350 338 315 285 265 243 234 233 224 215 211 209 208 208 209 210 211 210 211 212 213 216 218 219 218
249 178 168 220 240 151 136 202 254 232 230 227 197 176 178 178 165 155 149 159 188 176 177 191 132 114 124 147 159 148 131 79 66 51 21 12 11 16 24 26 24 23 21 17 15 16 15 10 8 9 5 359 356 355 354 352 349 347 348 353 357 351 346 340 320 299 274 249 241 234 224 216 212 211 211 211 212 213 212 212 213 215 218 221 222 220
187 241 199 231 248 154 135 199 241 229 223 165 104 120 150 162 176 181 160 149 163 224 321 42 80 106 132 170 171 91 35 11 27 85 45 19 360 359 14 21 18 17 18 15 13 12 12 7 4 5 4 1 356 352 350 350 346 343 342 349 356 355 350 350 345 329 308 277 253 241 234 226 219 216 216 215 213 212 214 215 217 219 221 224 224 222
184 228 201 236 255 169 136 198 224 220 168 103 104 120 125 129 189 191 146 155 182 199 144 116 125 124 118 170 37 39 355 321 299 229 142 34 6 351 358 9 10 10 11 11 9 8 7 3 1 1 0 358 356 353 351 349 347 345 344 347 356 3 359 354 353 351 339 319 287 255 240 235 229 222 219 218 214 212 214 217 219 222 224 225 225 224
235 227 196 219 241 204 184 207 216 141 110 119 133 146 152 176 193 204 203 190 187 183 173 173 149 132 144 257 314 339 309 304 285 237 216 47 30 4 357 360 2 1 2 2 1 2 2 0 358 358 356 353 353 354 352 348 346 346 345 344 351 1 8 6 1 356 350 342 331 303 261 243 238 231 225 220 216 215 215 217 220 222 223 225 228 229
260 251 227 221 218 233 238 222 190 125 161 174 170 164 177 190 177 225 237 181 158 157 175 175 152 150 181 220 281 315 307 296 267 214 174 84 42 19 0 355 353 352 354 354 352 353 356 356 353 352 351 351 353 353 350 346 345 346 344 345 349 351 360 12 11 1 353 346 339 333 313 274 250 239 231 225 221 219 218 218 220 222 222 225 228 230
238 253 262 239 210 229 260 246 217 225 214 173 147 139 135 86 77 23 284 188 152 152 173 172 159 163 179 182 238 301 296 279 258 191 151 98 13 11 357 347 345 344 345 345 343 344 349 349 346 344 344 349 353 352 348 344 345 346 343 342 346 346 346 1 10 4 358 350 338 329 325 311 284 257 240 231 228 226 223 222 223 222 221 223 227 230
215 234 250 251 230 219 244 246 229 233 191 120 127 132 129 114 103 202 257 210 154 152 168 173 157 155 168 163 234 284 273 260 244 132 95 4 347 351 340 334 335 334 334 334 334 339 342 340 336 335 338 345 350 349 346 345 345 345 342 338 338 340 343 349 357 357 354 351 342 331 322 316 311 297 267 245 237 233 229 226 226 225 223 224 227 230
207 210 214 234 238 220 231 245 243 245 105 121 137 141 134 128 168 237 242 186 142 147 157 162 155 148 159 236 271 264 267 273 289 2 8 344 332 327 322 322 323 322 322 321 326 333 332 328 328 331 334 339 343 342 343 345 344 343 342 336 333 337 342 341 342 344 343 341 340 337 331 321 314 310 299 282 264 251 246 240 234 229 226 227 230 232
209 211 217 234 236 220 223 239 249 249 117 136 152 149 139 151 219 244 234 118 133 149 144 151 180 145 290 295 288 275 301 323 317 324 328 321 315 313 310 309 310 310 311 313 320 325 320 318 323 325 326 329 330 333 339 342 342 341 339 335 332 334 337 335 333 336 337 333 331 334 336 331 317 304 300 305 298 278 265 261 257 252 243 237 234 233
209 209 219 233 240 235 231 239 250 248 127 146 158 148 154 191 230 210 114 112 132 142 137 175 251 301 288 289 298 297 307 314 308 306 308 306 306 306 305 305 305 305 306 308 311 312 311 312 315 316 317 320 322 327 332 331 334 336 335 333 332 331 330 330 329 331 332 329 325 326 329 330 326 315 304 306 306 288 266 257 258 260 260 260 258 248
209 210 220 221 225 239 241 235 246 268 120 149 157 153 180 216 180 95 124 133 135 139 157 217 241 269 279 286 296 296 299 303 300 301 303 303 303 302 300 302 302 301 303 302 302 304 307 309 308 307 309 313 318 324 325 321 322 327 328 329 331 330 328 327 326 326 326 323 319 320 325 328 330 329 322 313 304 290 277 266 257 251 248 253 264 266
209 219 242 226 201 217 235 223 216 52 116 157 169 174 199 193 116 94 136 147 142 174 218 248 240 236 269 284 293 294 294 295 296 300 300 298 300 301 300 300 300 300 301 299 299 302 304 303 302 301 303 305 309 314 316 315 313 315 318 323 327 328 327 326 324 323 322 320 317 317 323 329 330 331 329 323 312 299 288 277 265 256 248 243 247 257
204 220 286 287 220 231 267 284 68 70 119 177 201 252 162 158 142 116 273 275 234 225 240 260 252 245 266 282 289 291 292 296 302 303 300 297 297 299 300 300 299 298 299 300 300 302 301 299 298 297 298 299 301 302 303 304 303 304 309 315 321 324 325 326 325 323 319 318 318 315 318 327 330 329 326 322 318 313 301 284 268 262 261 252 245 249
218 229 300 287 251 254 269 264 241 225 193 192 204 197 141 152 155 161 221 245 250 247 243 249 262 273 280 288 292 290 293 302 305 302 302 301 297 296 297 297 297 297 298 299 301 302 301 299 296 294 294 294 295 296 295 293 294 297 302 308 314 319 322 323 323 320 316 316 315 312 312 321 327 321 315 315 316 314 309 299 283 268 263 261 256 252
211 206 219 241 248 248 249 233 226 237 231 208 202 194 179 181 176 176 208 231 232 234 232 227 248 264 270 276 282 286 294 300 302 303 305 303 297 297 296 296 298 299 298 298 299 300 300 297 294 292 292 292 292 293 291 290 288 289 294 301 307 313 318 319 319 318 316 315 313 309 308 315 322 315 309 310 313 310 307 305 300 291 279 268 261 255
193 184 211 238 239 239 250 248 200 229 233 222 220 213 205 208 203 195 206 216 210 214 217 217 233 251 260 268 274 283 292 295 299 302 303 300 297 296 295 295 296 297 296 296 296 295 294 293 292 290 290 289 289 289 287 286 284 285 287 291 298 306 311 313 313 314 314 312 310 308 306 308 312 315 314 313 310 305 302 302 303 304 299 290 282 273
123 166 218 248 241 241 252 249 229 220 224 225 228 230 229 230 223 210 206 205 202 206 211 218 231 245 259 272 279 283 286 290 295 298 297 297 296 293 292 294 295 294 293 294 293 292 290 288 288 288 287 287 287 286 283 280 279 280 281 283 290 299 304 307 309 309 309 311 309 307 307 307 306 311 317 315 312 308 298 289 292 297 296 294 293 288
175 231 251 260 251 248 251 251 247 250 252 243 231 226 228 235 232 220 210 207 206 207 212 222 232 241 254 268 277 282 285 288 292 294 294 293 293 293 294 295 294 292 292 291 290 289 287 285 285 284 283 283 283 282 279 276 275 274 275 278 283 289 296 303 307 305 305 309 309 308 309 308 305 306 313 314 314 313 308 298 292 290 290 293 294 292
214 242 249 251 255 260 267 281 289 274 264 272 274 238 224 228 227 218 212 211 209 204 210 225 234 241 253 264 272 278 284 287 288 290 290 290 293 295 296 295 293 292 292 291 289 287 285 284 283 281 280 279 279 277 275 272 269 269 269 272 277 281 286 294 301 301 301 303 304 306 307 304 300 301 305 308 310 313 312 309 307 302 298 299 303 301
Height
778 787 789 786 782 778 777 773 773 775 774 775 776 778 777 779 784 782 782 780 778 790 790 785 788 785 784 785 784 784 786 789 792 795 797 797 797 798 799 799 800 803 802 803 808 811 814 818 821 824 827 830 832 835 837 839 842 843 845 847 849 851 853 854 856 857 859 860 861 862 863 864 865 866 867 867 868 869 870 871 871 872 873 873 873 874
780 787 785 778 773 771 773 773 776 778 779 779 777 780 780 778 783 782 781 779 778 791 792 782 786 785 781 781 781 782 787 789 789 792 796 797 798 798 798 799 800 800 799 801 806 810 813 816 819 822 825 828 831 833 836 838 840 842 844 846 848 850 852 853 855 857 858 859 860 861 862 863 864 865 866 867 868 868 869 870 871 872 873 873 873 874
789 785 776 770 768 771 775 776 779 780 780 781 778 781 782 777 781 784 780 778 778 789 793 786 785 783 777 775 777 780 783 784 782 785 792 795 797 797 798 799 799 800 800 801 805 808 811 814 817 821 823 826 829 832 835 837 839 841 843 845 847 849 851 852 854 856 857 859 860 861 862 862 863 864 866 867 867 868 869 870 870 871 872 873 873 874
791 779 768 768 771 776 781 779 781 782 781 780 778 782 784 778 782 788 785 781 779 781 788 791 785 778 776 775 776 776 775 776 777 780 785 789 792 794 795 796 797 800 801 802 803 805 808 812 815 818 821 824 827 830 833 835 838 839 842 843 845 847 849 851 853 855 857 858 859 861 862 862 863 864 865 866 867 868 869 869 870 871 871 872 873 874
780 769 763 771 775 777 782 782 782 784 783 780 777 780 782 779 779 784 784 781 780 778 782 790 791 782 778 781 778 772 772 775 775 778 782 784 788 791 792 793 794 796 798 801 802 802 805 809 813 816 819 822 825 828 830 832 835 837 840 842 844 846 848 850 852 854 856 857 859 860 861 862 863 864 865 866 867 867 868 869 870 871 871 872 873 874
774 767 767 775 779 777 782 784 782 782 783 783 780 776 778 780 780 782 784 783 786 788 781 784 801 797 780 781 782 775 776 780 779 781 784 785 788 791 793 793 794 793 794 797 798 800 803 806 810 814 817 820 822 825 828 830 833 835 838 840 842 844 846 848 850 852 855 856 857 859 860 861 862 863 865 865 866 866 867 868 869 870 871 872 873 874
771 770 770 776 780 780 784 783 779 778 784 786 778 773 777 781 782 783 784 787 790 791 781 778 798 803 790 793 793 783 785 786 784 786 786 786 788 791 792 792 793 793 793 794 796 797 800 803 807 811 814 817 819 822 825 828 830 833 836 838 840 843 844 847 849 851 853 854 856 858 859 860 861 862 863 864 865 866 867 868 869 870 871 872 873 874
771 775 775 776 780 783 786 784 777 777 785 783 772 772 779 781 784 784 784 787 784 783 783 778 785 795 802 808 799 788 793 794 791 791 788 785 787 789 790 790 790 792 792 794 795 796 797 801 804 808 811 814 816 820 823 825 828 831 834 836 838 841 843 845 847 849 851 853 854 856 858 859 860 861 862 864 865 866 867 867 869 869 871 871 872 873
770 777 778 777 782 783 782 777 773 777 783 778 770 773 776 778 782 780 782 786 782 789 795 783 781 795 806 806 795 792 800 802 798 794 790 786 785 786 788 788 788 789 790 792 794 794 795 798 802 805 808 811 814 817 820 823 826 829 831 834 836 839 841 843 845 847 849 851 853 855 857 858 859 861 862 863 864 866 867 867 868 869 870 871 872 873
770 773 771 774 780 779 775 770 769 777 780 773 771 775 775 778 779 779 784 784 787 802 802 784 781 797 811 807 798 802 808 807 802 795 790 788 785 784 784 785 786 785 788 790 792 793 794 796 799 802 805 808 811 814 817 821 823 826 829 831 834 836 839 841 843 845 847 849 852 853 855 857 858 860 861 862 864 865 866 867 868 869 870 871 872 873
771 769 768 773 778 776 773 772 772 774 773 771 775 779 780 782 781 783 784 782 798 813 798 780 778 788 813 817 805 808 810 805 802 798 795 791 787 785 782 781 783 783 785 787 789 790 791 794 797 800 803 806 809 812 815 818 820 824 826 828 831 833 836 839 841 844 845 848 850 851 854 855 857 859 860 861 863 864 866 866 867 868 869 870 871 872
774 774 775 776 777 775 776 777 776 774 771 774 779 781 789 793 791 794 793 794 813 815 788 776 776 782 809 819 806 806 806 800 800 800 798 796 791 788 783 780 779 779 782 783 786 787 787 792 795 797 801 803 807 810 812 815 818 821 824 826 829 831 834 837 839 841 844 846 848 850 852 854 855 857 859 860 862 863 864 865 867 868 869 870 870 871
777 778 778 779 777 774 779 781 780 780 777 778 779 783 797 806 810 814 811 810 814 803 779 773 779 788 808 812 802 804 804 798 798 797 796 796 793 790 785 781 778 777 779 780 784 787 786 788 792 794 798 801 804 808 810 813 815 818 821 823 826 829 831 834 837 839 842 844 846 848 850 852 854 856 857 859 860 862 863 864 865 866 868 869 869 870
786 785 778 781 780 775 778 780 784 785 781 781 780 784 797 806 819 826 817 813 809 794 780 776 782 798 812 810 799 800 802 797 794 794 794 794 792 790 786 781 778 775 776 778 781 784 783 784 788 791 795 798 801 805 807 810 813 815 818 821 824 827 829 832 834 837 840 842 844 846 848 850 852 854 855 857 859 860 862 863 864 865 866 867 868 869
791 797 786 783 784 778 779 780 781 778 776 777 772 775 785 788 802 813 806 806 803 791 786 786 790 799 810 811 798 794 797 795 794 794 793 793 791 789 787 783 782 778 775 776 776 779 781 782 785 789 792 795 798 802 804 807 810 813 815 818 820 823 826 829 832 834 837 839 842 844 846 848 850 852 854 855 857 859 860 861 863 864 865 866 867 868
786 795 786 782 782 779 782 781 776 776 777 773 766 775 783 774 776 786 785 783 784 788 792 793 796 795 798 802 793 791 797 795 797 797 795 797 794 791 791 788 787 784 779 777 775 776 778 780 783 786 789 792 795 798 801 804 807 810 812 815 817 820 823 826 829 832 834 837 840 842 844 846 848 850 852 853 855 857 858 860 861 862 864 865 866 867
788 793 786 783 783 780 782 780 776 780 782 775 775 782 777 766 770 781 786 778 776 792 793 788 803 807 801 804 797 794 800 799 800 800 798 800 798 795 796 793 790 788 784 781 779 776 775 776 780 783 786 789 791 794 798 801 804 807 809 812 814 818 820 823 826 829 831 834 837 839 841 844 846 847 849 851 853 854 856 858 859 861 862 863 865 866
785 792 788 783 787 783 779 780 777 777 777 778 782 777 769 772 776 780 792 792 791 801 794 784 803 813 810 813 807 800 805 805 804 804 801 801 800 799 799 797 795 792 787 784 781 778 775 775 777 780 783 786 788 791 794 797 801 804 807 809 811 815 817 820 823 826 829 831 834 836 838 840 843 845 847 849 850 853 854 856 857 858 860 861 863 864
781 793 792 784 787 784 777 781 783 776 773 778 778 769 772 788 790 786 793 799 801 803 798 793 800 807 808 811 813 811 811 809 806 806 805 803 803 803 801 801 800 796 791 787 783 780 777 775 776 778 781 783 785 789 791 794 798 801 804 806 809 812 814 817 820 822 825 828 830 833 835 837 840 842 844 847 848 850 852 853 854 856 858 859 860 862
780 791 796 786 782 783 780 782 787 784 776 775 776 772 774 781 784 785 782 783 790 794 802 809 809 813 812 808 815 820 815 812 810 808 808 806 804 804 804 804 803 800 796 790 785 782 778 775 775 776 779 782 783 787 790 792 795 797 800 804 806 809 812 815 817 819 822 824 827 829 832 834 836 839 841 844 846 848 849 850 852 854 855 857 858 860
781 785 794 790 782 785 791 792 795 795 786 781 780 779 781 777 777 783 777 772 778 783 794 808 816 822 817 808 815 819 814 812 811 809 809 807 805 805 806 806 805 803 799 793 788 783 779 776 774 775 777 780 782 784 787 790 792 795 798 801 803 806 809 812 815 817 819 822 824 826 829 831 833 836 838 841 843 845 846 848 849 851 853 854 856 857
786 784 788 790 787 793 803 802 799 800 795 790 785 782 785 782 781 793 793 779 776 779 781 790 815 831 818 808 814 815 812 812 810 809 809 808 808 807 808 808 806 805 801 797 791 786 783 779 777 777 777 779 780 782 785 788 790 793 795 798 801 803 806 808 811 814 817 819 822 823 826 828 830 833 835 837 840 841 843 845 846 848 850 852 853 854
792 787 788 795 796 799 804 802 798 800 797 793 790 789 788 784 783 794 798 786 779 782 778 780 813 835 818 808 814 813 811 811 810 811 810 809 810 809 809 809 807 806 803 800 796 790 788 786 783 782 782 782 781 780 783 786 788 791 793 795 798 801 803 806 808 811 814 816 819 821 823 826 828 830 832 834 836 838 840 842 843 845 847 849 850 852
793 792 796 804 804 801 801 799 797 797 796 794 794 793 791 790 789 790 791 787 781 784 785 786 815 835 820 810 814 811 811 811 810 811 812 812 811 809 811 811 809 808 806 803 800 796 793 791 787 787 787 786 785 782 783 786 787 789 791 793 796 798 801 804 806 809 811 813 816 818 821 823 825 827 829 831 833 834 837 838 840 842 843 846 847 849
798 797 799 806 811 811 809 806 803 799 796 798 799 799 797 795 794 792 790 790 788 790 790 788 810 829 820 812 814 811 812 814 812 813 813 814 814 811 812 812 811 811 809 806 804 800 798 796 793 792 790 789 788 787 787 787 788 788 789 792 794 796 799 802 805 807 809 811 813 816 818 820 822 824 826 828 829 831 833 835 837 839 840 842 844 846
802 803 803 806 810 814 815 814 810 802 797 800 803 803 802 798 798 797 793 794 797 800 797 796 811 826 820 814 818 817 816 818 817 816 815 815 815 814 814 814 813 812 811 811 809 806 804 802 800 798 795 792 792 792 793 791 790 789 789 791 793 794 797 800 802 805 806 809 811 813 815 817 819 821 823 825 826 828 830 832 833 835 836 838 840 842
804 807 809 811 809 810 816 817 810 802 800 806 809 807 806 803 800 797 795 797 798 798 805 813 817 822 821 818 821 822 820 821 820 819 819 819 817 816 816 815 814 813 813 813 811 810 809 807 806 804 801 798 796 796 796 795 793 791 790 790 791 793 795 797 800 802 803 806 808 810 812 814 816 818 820 822 824 825 827 829 830 832 833 835 837 838
806 810 812 815 814 813 815 815 810 806 808 812 812 810 809 806 803 801 802 806 803 800 814 823 816 818 823 820 821 824 823 822 823 822 822 822 820 819 818 816 815 814 813 813 813 813 812 811 810 808 806 804 801 800 798 797 797 795 793 791 791 792 794 796 798 800 801 804 806 807 808 810 812 815 817 819 821 823 825 826 827 829 830 832 833 835
806 812 813 814 817 816 814 814 813 812 813 814 813 813 812 810 809 810 810 811 808 809 818 823 818 821 824 820 821 825 824 823 825 824 822 822 821 821 819 818 817 816 815 815 815 814 814 814 813 811 810 808 806 803 801 800 800 798 797 795 793 793 793 794 797 799 800 802 803 804 806 807 810 811 814 816 818 820 822 823 825 826 828 829 830 832
809 815 816 814 818 820 818 817 816 816 817 816 814 814 814 812 811 812 812 810 811 814 816 818 821 825 824 820 821 825 825 823 824 824 823 823 823 823 822 821 820 819 818 818 817 816 815 815 814 814 812 810 809 807 805 804 803 802 801 799 797 796 794 794 795 797 800 801 801 802 804 805 808 809 811 813 814 816 818 820 822 824 825 826 827 829
812 820 820 814 817 821 821 819 818 818 818 817 816 814 814 814 814 813 813 811 813 816 815 817 824 828 825 821 821 824 825 823 824 825 825 824 825 824 824 823 823 822 821 820 819 818 816 816 815 815 814 813 811 810 808 807 806 805 803 802 801 799 796 795 794 795 798 800 800 801 802 804 805 807 809 810 812 813 815 817 819 821 822 823 825 826
813 820 821 817 818 820 820 821 819 817 818 818 818 816 814 814 814 812 812 811 812 816 819 820 821 822 822 821 820 821 821 822 825 827 826 827 827 826 826 826 825 825 823 822 821 820 819 818 817 817 817 815 813 811 810 809 807 806 804 803 803 801 799 797 795 795 796 798 799 800 801 801 803 804 806 808 809 811 812 814 816 818 819 820 821 823
815 817 818 818 818 817 819 821 818 817 821 819 813 811 812 812 813 813 814 814 813 814 816 816 815 816 819 821 822 822 821 823 826 827 827 829 828 826 827 827 826 826 825 824 823 821 821 821 819 819 819 817 816 814 812 811 809 807 805 803 802 801 800 798 797 795 795 795 797 798 799 799 800 801 803 804 806 808 810 812 813 814 816 817 818 820
818 817 816 816 817 819 820 820 819 821 823 818 810 808 812 814 814 815 816 816 816 814 812 813 815 818 820 822 824 825 825 825 826 825 827 828 829 828 826 826 826 826 825 825 824 822 822 822 821 821 820 818 817 816 814 813 811 809 807 805 803 802 801 799 798 796 795 794 794 795 797 798 798 798 800 801 803 805 807 809 810 811 812 814 815 816
821 819 819 818 817 817 817 821 828 827 821 815 812 811 813 814 814 815 817 817 817 816 816 817 819 821 823 824 824 825 826 826 824 823 824 826 829 829 826 825 825 824 824 825 824 823 823 823 822 821 820 819 818 816 815 814 812 811 809 807 805 803 801 800 798 797 795 794 793 793 794 795 795 796 797 798 800 801 803 804 806 807 809 810 811 812
821 820 820 820 818 818 820 823 828 826 817 815 815 814 815 817 817 819 821 819 816 817 819 820 820 821 825 826 825 825 825 824 823 822 822 825 828 829 827 826 825 824 824 824 824 824 824 823 822 821 820 820 818 817 816 815 813 812 810 808 806 804 801 800 798 797 796 795 794 793 792 793 793 793 794 795 796 797 798 799 800 802 804 805 807 807
821 820 820 821 821 821 819 814 814 818 819 818 817 814 814 815 816 818 819 817 816 818 820 822 823 824 825 826 826 826 824 824 823 821 821 825 828 828 827 826 826 825 825 824 824 824 824 824 823 822 821 820 819 818 817 815 814 813 810 808 806 804 802 800 798 797 796 795 794 793 792 791 790 790 790 791 792 792 793 794 795 797 799 800 801 802
821 822 823 824 823 821 820 817 817 821 820 815 812 811 811 813 814 817 819 819 819 820 821 823 826 827 827 827 828 827 826 827 824 819 821 825 826 827 828 827 826 826 825 825 825 824 824 824 824 823 822 820 819 818 817 815 814 813 810 808 806 804 803 800 798 797 796 795 794 793 791 790 788 787 787 787 787 787 787 789 790 791 793 795 796 797
824 823 823 825 823 821 823 824 821 820 817 813 812 813 814 814 815 818 822 822 820 821 822 823 826 828 828 829 830 829 830 829 821 817 822 827 825 826 828 827 827 827 826 826 825 824 824 824 823 822 821 820 819 819 817 815 814 813 811 809 806 805 803 801 799 798 796 795 794 792 791 789 788 786 785 783 783 783 783 784 786 787 788 790 791 791
826 824 824 826 823 820 823 822 814 810 812 813 814 815 814 814 817 824 828 825 822 822 822 823 826 828 829 830 830 830 830 829 822 819 823 826 825 826 828 827 828 828 827 826 825 824 824 823 822 821 820 819 819 818 817 815 814 813 812 809 807 805 803 802 800 798 796 794 792 791 790 789 788 786 784 783 783 782 782 782 783 784 785 786 786 787
826 824 823 823 820 817 822 824 815 807 807 811 813 813 814 817 823 828 827 823 822 823 823 824 826 827 828 830 830 829 828 828 826 825 826 827 827 827 828 828 828 828 827 826 825 825 824 823 821 821 820 819 818 817 816 815 814 813 812 810 808 805 803 802 800 797 796 793 791 790 789 789 788 786 784 783 783 783 783 784 784 784 784 784 783 783
826 825 824 822 819 815 816 819 817 810 805 807 810 812 815 821 825 824 821 821 822 823 824 826 827 827 828 829 829 829 829 828 829 829 828 828 828 828 828 827 827 827 827 827 826 825 823 822 821 820 819 818 817 815 815 814 813 813 811 809 808 806 804 802 800 797 795 793 791 789 788 788 787 785 784 784 783 783 783 783 783 784 784 786 785 782
820 823 823 819 817 818 819 822 826 820 809 806 812 817 819 820 819 818 820 822 822 822 824 826 826 827 829 829 829 830 830 829 830 830 829 829 828 828 828 827 826 826 825 825 825 824 823 821 820 819 818 817 816 815 814 814 813 812 810 808 807 806 804 802 800 798 795 793 791 789 787 786 785 784 784 784 783 783 782 781 781 780 781 784 786 786
815 819 819 812 810 817 821 820 819 815 808 807 811 814 814 813 813 815 818 819 820 821 823 824 824 826 828 829 830 830 830 830 830 830 830 829 828 827 827 826 826 825 824 824 824 823 823 822 820 818 817 816 815 815 814 813 812 811 810 808 807 805 804 802 800 798 795 793 791 789 786 784 783 782 783 783 782 781 781 781 780 778 777 778 781 783
813 813 816 813 809 811 811 808 806 807 807 807 808 808 809 811 813 816 817 817 819 820 821 822 824 825 827 829 829 829 829 828 828 828 829 829 828 827 827 826 825 825 823 822 822 822 822 821 819 817 816 815 815 814 813 812 811 810 809 808 806 805 803 801 800 798 796 793 791 789 786 783 781 781 782 782 781 780 778 778 778 777 776 776 776 777
811 812 816 816 811 808 807 804 804 807 807 807 808 808 810 812 813 815 817 818 819 820 820 823 824 825 826 828 828 828 828 827 827 827 827 827 827 827 827 826 825 824 822 822 821 821 821 820 818 817 815 814 814 813 812 811 810 808 807 807 806 804 802 801 800 798 796 794 791 789 786 783 781 782 782 782 781 779 778 775 774 773 774 775 774 774
810 813 816 815 813 814 811 804 802 806 806 806 808 809 811 813 814 815 817 818 818 820 821 822 824 825 826 827 827 828 827 826 825 826 825 826 826 826 826 825 824 823 822 821 820 820 819 818 817 816 814 813 812 811 810 809 808 807 806 805 804 803 801 800 799 797 796 794 791 789 786 783 781 781 781 780 779 779 778 775 772 771 771 772 772 771
806 811 814 812 811 812 808 803 803 806 806 805 806 807 809 811 812 814 815 817 818 820 821 822 824 825 825 825 826 827 826 825 825 825 824 824 824 824 825 824 823 823 822 820 820 819 818 816 815 814 813 812 810 809 808 807 806 805 804 804 803 802 800 798 797 796 795 793 792 789 786 783 781 779 778 777 777 776 776 775 773 770 768 768 769 769
807 812 811 808 809 808 804 801 804 808 807 806 805 805 805 807 809 811 814 816 817 820 821 822 823 823 823 824 825 825 825 825 824 824 823 822 822 823 823 822 822 822 821 820 819 817 816 815 813 812 810 809 809 808 806 805 804 804 803 802 802 801 799 797 796 795 793 792 791 788 786 784 781 778 775 775 774 773 773 772 772 769 766 766 767 768
811 811 807 808 810 806 799 797 800 804 805 802 800 802 804 805 807 810 812 814 816 818 819 820 821 822 823 823 823 823 824 824 823 823 822 821 821 820 820 820 820 820 819 818 817 815 814 813 811 810 808 807 806 806 804 803 802 801 801 800 800 799 798 797 795 793 792 790 789 787 786 784 781 777 774 773 771 770 768 767 767 767 765 764 763 762
809 807 806 810 809 802 796 795 798 802 802 798 798 801 803 804 806 809 811 812 814 815 817 819 820 821 822 822 823 823 823 822 823 822 821 820 819 819 818 818 817 817 816 816 814 813 812 810 809 807 805 804 803 803 802 800 799 798 798 798 798 798 797 795 794 792 790 789 787 786 785 784 781 777 774 771 770 768 766 763 761 761 762 762 760 758